FW8891 Weather Reports


Display with metric or nautical units.
time (UTC)temp
F
wind
direction
speed
MPH
gust
MPH
rain 1hr
in
rain 24hr
in
rain mn
in
humidity
%
barometer
mb
20260903172059 92 135 3.0 10.0 0.00 0.00 0.00 47 1014.2
20260903171607 92 171 5.0 10.0 0.00 0.00 0.00 48 1014.2
20260903171058 92 129 6.0 10.0 0.00 0.00 0.00 48 1014.1
20260903170558 92 138 5.0 9.0 0.00 0.00 0.00 49 1014.1
20260903165559 92 161 6.0 11.0 0.00 0.00 0.00 49 1014.1
20260903165058 91 207 5.0 10.0 0.00 0.00 0.00 50 1014.2
20260903164608 91 164 4.0 11.0 0.00 0.00 0.00 51 1014.2
20260903164058 91 214 6.0 11.0 0.00 0.00 0.00 52 1014.2
20260903163558 91 181 5.0 10.0 0.00 0.00 0.00 53 1014.3
20260903163100 90 172 4.0 10.0 0.00 0.00 0.00 53 1014.2
20260903162559 91 193 5.0 9.0 0.00 0.00 0.00 52 1014.2
20260903162059 90 188 3.0 9.0 0.00 0.00 0.00 53 1014.3
20260903161617 89 143 2.0 7.0 0.00 0.00 0.00 55 1014.2
20260903161058 90 163 4.0 7.0 0.00 0.00 0.00 55 1014.4
20260903160558 89 147 3.0 6.0 0.00 0.00 0.00 55 1014.2
20260903160101 89 122 2.0 5.0 0.00 0.00 0.00 55 1014.4
20260903155559 89 152 2.0 5.0 0.00 0.00 0.00 54 1014.4
20260903155058 89 162 2.0 5.0 0.00 0.00 0.00 56 1014.4
20260903154603 89 153 0.0 4.0 0.00 0.00 0.00 55 1014.5
20260903154059 88 0 1.0 5.0 0.00 0.00 0.00 50 1014.4
20260903153558 87 23 2.0 5.0 0.00 0.00 0.00 57 1014.4
20260903153106 86 60 2.0 4.0 0.00 0.00 0.00 56 1014.4
20260903152558 85 55 2.0 4.0 0.00 0.00 0.00 55 1014.4
20260903152101 85 77 1.0 4.0 0.00 0.00 0.00 51 1014.4
20260903151614 84 63 2.0 4.0 0.00 0.00 0.00 51 1014.3
20260903151059 84 38 2.0 4.0 0.00 0.00 0.00 51 1014.4
20260903150600 84 64 1.0 4.0 0.00 0.00 0.00 51 1014.4
20260903145559 84 51 1.0 3.0 0.00 0.00 0.00 50 1014.4
20260903145100 84 63 1.0 3.0 0.00 0.00 0.00 48 1014.4
20260903144602 84 63 2.0 3.0 0.00 0.00 0.00 48 1014.4
20260903144100 84 71 0.0 2.0 0.00 0.00 0.00 48 1014.4
20260903143600 84 0 0.0 5.0 0.00 0.00 0.00 48 1014.3
20260903143103 84 53 0.0 5.0 0.00 0.00 0.00 48 1014.3
20260903142600 84 340 1.0 3.0 0.00 0.00 0.00 46 1014.2
20260903142100 85 62 1.0 2.0 0.00 0.00 0.00 45 1014.2
20260903141605 85 63 0.0 3.0 0.00 0.00 0.00 44 1014.2
20260903141101 85 0 0.0 3.0 0.00 0.00 0.00 45 1014.1
20260903140600 85 65 1.0 2.0 0.00 0.00 0.00 44 1014.1
20260903140104 85 56 1.0 2.0 0.00 0.00 0.00 45 1014.0
20260903135600 85 55 0.0 0.0 0.00 0.00 0.00 45 1014.0
20260903135100 84 0 0.0 0.0 0.00 0.00 0.00 47 1013.8
20260903134609 83 0 0.0 1.0 0.00 0.00 0.00 47 1013.7
20260903134100 83 0 0.0 1.0 0.00 0.00 0.00 47 1013.7
20260903133600 82 55 0.0 3.0 0.00 0.00 0.00 47 1013.7
20260903133109 82 0 0.0 4.0 0.00 0.00 0.00 48 1013.7
20260903132559 81 56 1.0 4.0 0.00 0.00 0.00 48 1013.6
20260903132100 80 53 2.0 4.0 0.00 0.00 0.00 49 1013.5
20260903131604 80 0 0.0 0.0 0.00 0.00 0.00 49 1013.4
20260903131059 81 0 0.0 0.0 0.00 0.00 0.00 48 1013.3
20260903130604 80 0 0.0 0.0 0.00 0.00 0.00 49 1013.2
20260903130105 80 0 0.0 0.0 0.00 0.00 0.00 48 1013.2
20260903125600 80 0 0.0 0.0 0.00 0.00 0.00 49 1013.2
20260903125100 79 0 0.0 0.0 0.00 0.00 0.00 49 1013.2
20260903124606 80 0 0.0 0.0 0.00 0.00 0.00 49 1013.2
20260903124059 80 0 0.0 0.0 0.00 0.00 0.00 50 1013.1
20260903123559 80 0 0.0 0.0 0.00 0.00 0.00 50 1013.0
20260903123105 80 0 0.0 0.0 0.00 0.00 0.00 49 1013.0
20260903122601 81 0 0.0 2.0 0.00 0.00 0.00 47 1012.9
20260903122100 81 0 1.0 2.0 0.00 0.00 0.00 47 1012.9
20260903121605 81 71 0.0 1.0 0.00 0.00 0.00 47 1012.8
20260903121059 80 0 0.0 1.0 0.00 0.00 0.00 47 1012.9
20260903120602 80 0 0.0 2.0 0.00 0.00 0.00 46 1012.8
20260903120104 80 0 0.0 2.0 0.00 0.00 0.00 46 1012.7
20260903115557 80 0 0.0 1.0 0.00 0.00 0.00 45 1012.7
20260903115058 80 0 0.0 1.0 0.00 0.00 0.00 44 1012.7
20260903114602 81 353 0.0 1.0 0.00 0.00 0.00 43 1012.7
20260903114058 81 0 0.0 1.0 0.00 0.00 0.00 44 1012.7
20260903113601 80 110 0.0 1.0 0.00 0.00 0.00 44 1012.6
20260903113102 80 0 0.0 1.0 0.00 0.00 0.00 44 1012.6
20260903112559 80 0 0.0 0.0 0.00 0.00 0.00 42 1012.7
20260903112059 80 0 0.0 1.0 0.00 0.00 0.00 42 1012.7
20260903111602 81 0 0.0 1.0 0.00 0.00 0.00 42 1012.7
20260903111058 81 0 0.0 3.0 0.00 0.00 0.00 42 1012.6
20260903110602 81 0 0.0 3.0 0.00 0.00 0.00 41 1012.7
20260903110106 81 61 0.0 0.0 0.00 0.00 0.00 41 1012.7
20260903105602 81 0 0.0 0.0 0.00 0.00 0.00 41 1012.6
20260903105058 81 0 0.0 0.0 0.00 0.00 0.00 42 1012.6
20260903104605 81 0 0.0 0.0 0.00 0.00 0.00 42 1012.6
20260903104058 81 0 0.0 0.0 0.00 0.00 0.00 42 1012.7
20260903103558 81 0 0.0 0.0 0.00 0.00 0.00 42 1012.7
20260903103101 81 0 0.0 0.0 0.00 0.00 0.00 42 1012.7
20260903102558 81 0 0.0 0.0 0.00 0.00 0.00 42 1012.7
20260903102058 81 0 0.0 0.0 0.00 0.00 0.00 41 1012.7
20260903101612 81 0 0.0 0.0 0.00 0.00 0.00 41 1012.8
20260903101059 82 0 0.0 0.0 0.00 0.00 0.00 41 1012.8
20260903100559 82 0 0.0 0.0 0.00 0.00 0.00 40 1012.8
20260903095558 82 0 0.0 0.0 0.00 0.00 0.00 39 1012.8
20260903095059 82 0 0.0 0.0 0.00 0.00 0.00 38 1012.7
20260903094610 82 0 0.0 0.0 0.00 0.00 0.00 38 1012.8
20260903094059 82 0 0.0 0.0 0.00 0.00 0.00 38 1012.7
20260903093559 82 0 0.0 0.0 0.00 0.00 0.00 38 1012.8
20260903093107 83 0 0.0 0.0 0.00 0.00 0.00 38 1012.7
20260903092558 83 0 0.0 1.0 0.00 0.00 0.00 37 1012.7
20260903092058 83 0 0.0 1.0 0.00 0.00 0.00 37 1012.7
20260903091608 83 0 0.0 1.0 0.00 0.00 0.00 37 1012.7
20260903091058 83 280 0.0 2.0 0.00 0.00 0.00 37 1012.8
20260903090558 83 0 0.0 2.0 0.00 0.00 0.00 37 1012.7
20260903090106 83 0 0.0 1.0 0.00 0.00 0.00 36 1012.7
20260903085559 83 0 0.0 1.0 0.00 0.00 0.00 36 1012.7
20260903085059 83 0 0.0 1.0 0.00 0.00 0.00 36 1012.7
20260903084600 84 0 0.0 1.0 0.00 0.00 0.00 36 1012.8
20260903084058 84 274 0.0 1.0 0.00 0.00 0.00 37 1012.7
20260903083559 84 0 0.0 3.0 0.00 0.00 0.00 37 1012.7
20260903083107 84 230 0.0 3.0 0.00 0.00 0.00 36 1012.6
20260903082558 84 167 1.0 3.0 0.00 0.00 0.00 36 1012.7
20260903082058 84 167 2.0 3.0 0.00 0.00 0.00 36 1012.7
20260903081602 84 188 1.0 2.0 0.00 0.00 0.00 36 1012.7
20260903081100 84 181 0.0 0.0 0.00 0.00 0.00 38 1012.6
20260903080559 84 0 0.0 0.0 0.00 0.00 0.00 37 1012.6
20260903080113 84 0 0.0 0.0 0.00 0.00 0.00 36 1012.5
20260903075559 84 0 0.0 0.0 0.00 0.00 0.00 36 1012.5
20260903075058 85 0 0.0 0.0 0.00 0.00 0.00 35 1012.5
20260903074602 85 0 0.0 0.0 0.00 0.00 0.00 35 1012.5
20260903074058 85 0 0.0 0.0 0.00 0.00 0.00 35 1012.5
20260903073558 86 0 0.0 1.0 0.00 0.00 0.00 35 1012.5
20260903073122 86 0 0.0 2.0 0.00 0.00 0.00 34 1012.4
20260903072558 86 259 1.0 2.0 0.00 0.00 0.00 35 1012.4
20260903072058 86 0 0.0 2.0 0.00 0.00 0.00 35 1012.4
20260903071603 86 285 0.0 2.0 0.00 0.00 0.00 35 1012.4
20260903071101 86 0 0.0 2.0 0.00 0.00 0.00 35 1012.5
20260903070602 86 279 1.0 2.0 0.00 0.00 0.00 34 1012.5
20260903070108 86 253 0.0 2.0 0.00 0.00 0.00 33 1012.4
20260903065558 86 0 0.0 2.0 0.00 0.00 0.00 34 1012.3
20260903065058 87 281 1.0 2.0 0.00 0.00 0.00 34 1012.3
20260903064603 87 258 0.0 2.0 0.00 0.00 0.00 34 1012.2
20260903064058 87 0 0.0 2.0 0.00 0.00 0.00 33 1012.2
20260903063558 87 0 0.0 2.0 0.00 0.00 0.00 33 1012.2
20260903063127 88 288 1.0 4.0 0.00 0.00 0.00 32 1012.2
20260903062559 88 274 1.0 5.0 0.00 0.00 0.00 32 1012.2
20260903062100 88 274 2.0 5.0 0.00 0.00 0.00 32 1012.2
20260903061604 88 247 2.0 5.0 0.00 0.00 0.00 32 1012.1
20260903061103 88 292 2.0 5.0 0.00 0.00 0.00 32 1012.2
20260903060558 88 295 2.0 5.0 0.00 0.00 0.00 33 1012.1
20260903060108 88 289 2.0 5.0 0.00 0.00 0.00 33 1012.1
20260903055558 88 309 2.0 5.0 0.00 0.00 0.00 33 1012.1
20260903055059 89 295 2.0 5.0 0.00 0.00 0.00 32 1012.1
20260903054601 89 261 1.0 5.0 0.00 0.00 0.00 31 1012.2
20260903054058 89 269 2.0 5.0 0.00 0.00 0.00 30 1012.1
20260903053557 89 266 2.0 4.0 0.00 0.00 0.00 30 1012.1
20260903053104 90 291 2.0 4.0 0.00 0.00 0.00 30 1012.1
20260903052559 90 298 2.0 5.0 0.00 0.00 0.00 30 1012.2
20260903052102 90 260 2.0 5.0 0.00 0.00 0.00 29 1012.2
20260903051606 90 284 2.0 5.0 0.00 0.00 0.00 29 1012.2
20260903051058 90 288 2.0 5.0 0.00 0.00 0.00 28 1012.2
20260903050601 91 234 3.0 5.0 0.00 0.00 0.00 28 1012.3
20260903045558 91 285 3.0 6.0 0.00 0.00 0.00 28 1012.2
20260903045058 91 286 2.0 6.0 0.00 0.00 0.00 29 1012.2
20260903044606 91 281 3.0 6.0 0.00 0.00 0.00 28 1012.1
20260903044059 91 328 3.0 6.0 0.00 0.00 0.00 28 1012.2
20260903043559 92 257 3.0 6.0 0.00 0.00 0.00 28 1012.2
20260903043110 92 248 3.0 6.0 0.00 0.00 0.00 28 1012.3
20260903042614 92 289 2.0 5.0 0.00 0.00 0.00 27 1012.2
20260903042101 92 283 2.0 6.0 0.00 0.00 0.00 27 1012.2
20260903041601 92 231 2.0 6.0 0.00 0.00 0.00 27 1012.1
20260903041058 93 280 3.0 6.0 0.00 0.00 0.00 27 1012.1
20260903040601 93 330 2.0 5.0 0.00 0.00 0.00 27 1012.0
20260903040105 93 263 2.0 5.0 0.00 0.00 0.00 27 1012.0
20260903035558 93 230 2.0 5.0 0.00 0.00 0.00 27 1011.9
20260903035058 93 228 1.0 3.0 0.00 0.00 0.00 27 1011.9
20260903034601 93 248 2.0 5.0 0.00 0.00 0.00 27 1011.9
20260903034059 93 277 2.0 5.0 0.00 0.00 0.00 28 1011.9
20260903033558 93 226 1.0 3.0 0.00 0.00 0.00 29 1011.9
20260903033103 93 210 1.0 3.0 0.00 0.00 0.00 29 1011.9
20260903032558 93 0 0.0 2.0 0.00 0.00 0.00 29 1011.8
20260903032100 93 212 0.0 4.0 0.00 0.00 0.00 28 1011.8
20260903031601 94 226 1.0 4.0 0.00 0.00 0.00 28 1011.7
20260903031101 94 167 1.0 3.0 0.00 0.00 0.00 28 1011.7
20260903030558 94 247 1.0 3.0 0.00 0.00 0.00 28 1011.7
20260903030110 94 262 1.0 3.0 0.00 0.00 0.00 29 1011.6
20260903025557 94 172 0.0 2.0 0.00 0.00 0.00 29 1011.6
20260903025101 95 0 0.0 3.0 0.00 0.00 0.00 29 1011.5
20260903024605 95 225 0.0 3.0 0.00 0.00 0.00 28 1011.4
20260903024102 95 246 1.0 4.0 0.00 0.00 0.00 28 1011.4
20260903023601 95 259 1.0 4.0 0.00 0.00 0.00 28 1011.4
20260903023106 96 266 2.0 4.0 0.00 0.00 0.00 28 1011.3
20260903022559 96 220 2.0 6.0 0.00 0.00 0.00 27 1011.2
20260903022059 96 232 2.0 6.0 0.00 0.00 0.00 27 1011.2
20260903021602 96 241 3.0 6.0 0.00 0.00 0.00 27 1011.2
20260903021059 96 178 2.0 6.0 0.00 0.00 0.00 27 1011.1
20260903020559 97 260 2.0 7.0 0.00 0.00 0.00 27 1011.1
20260903020106 97 303 2.0 7.0 0.00 0.00 0.00 27 1011.1
20260903015600 97 257 3.0 6.0 0.00 0.00 0.00 26 1011.1
20260903015058 98 235 2.0 6.0 0.00 0.00 0.00 27 1011.1
20260903014603 98 197 2.0 9.0 0.00 0.00 0.00 26 1011.0
20260903014058 98 240 3.0 9.0 0.00 0.00 0.00 26 1011.0
20260903013559 98 291 5.0 9.0 0.00 0.00 0.00 26 1010.9
20260903013103 99 151 3.0 10.0 0.00 0.00 0.00 25 1010.9
20260903012559 99 207 3.0 10.0 0.00 0.00 0.00 25 1011.0
20260903012059 99 295 5.0 10.0 0.00 0.00 0.00 25 1010.9
20260903011610 100 281 4.0 9.0 0.00 0.00 0.00 25 1010.9
20260903011059 100 288 4.0 12.0 0.00 0.00 0.00 25 1010.9
20260903010558 100 228 4.0 12.0 0.00 0.00 0.00 25 1011.0
20260903010108 100 233 5.0 10.0 0.00 0.00 0.00 26 1011.0
20260903005604 100 316 4.0 10.0 0.00 0.00 0.00 25 1010.9
20260903005100 100 150 5.0 11.0 0.00 0.00 0.00 27 1010.9
20260903004623 100 257 5.0 11.0 0.00 0.00 0.00 26 1011.0
20260903004059 100 195 7.0 11.0 0.00 0.00 0.00 27 1011.0
20260903003559 101 268 6.0 10.0 0.00 0.00 0.00 26 1011.0
20260903003102 101 159 3.0 9.0 0.00 0.00 0.00 27 1010.9
20260903002559 101 214 4.0 10.0 0.00 0.00 0.00 27 1011.0
20260903002058 101 187 4.0 13.0 0.00 0.00 0.00 27 1010.9
20260903001607 101 202 5.0 13.0 0.00 0.00 0.00 27 1010.9
20260903001058 102 254 6.0 12.0 0.00 0.00 0.00 26 1011.0
20260903000559 102 226 5.0 12.0 0.00 0.00 0.00 26 1011.0
20260903000107 102 201 3.0 8.0 0.00 0.00 0.00 27 1011.1
20260902235559 102 245 3.0 13.0 0.00 0.00 0.00 27 1011.2
20260902235058 102 200 4.0 13.0 0.00 0.00 0.00 27 1011.2
20260902234604 102 195 8.0 13.0 0.00 0.00 0.00 27 1011.2
20260902234059 102 145 4.0 10.0 0.00 0.00 0.00 27 1011.2
20260902233559 102 185 2.0 7.0 0.00 0.00 0.00 27 1011.2
20260902233105 102 291 2.0 9.0 0.00 0.00 0.00 27 1011.3
20260902232600 102 165 5.0 9.0 0.00 0.00 0.00 27 1011.4
20260902232059 102 191 3.0 9.0 0.00 0.00 0.00 28 1011.5
20260902231607 102 245 4.0 10.0 0.00 0.00 0.00 27 1011.5
20260902231059 102 290 6.0 10.0 0.00 0.00 0.00 28 1011.6
20260902230559 102 180 5.0 9.0 0.00 0.00 0.00 28 1011.6
20260902230107 102 268 5.0 10.0 0.00 0.00 0.00 28 1011.6
20260902225559 102 273 6.0 12.0 0.00 0.00 0.00 28 1011.7
20260902225059 102 246 4.0 12.0 0.00 0.00 0.00 28 1011.8
20260902224603 102 299 4.0 12.0 0.00 0.00 0.00 28 1011.8
20260902224058 102 200 3.0 9.0 0.00 0.00 0.00 29 1011.8
20260902223558 102 210 3.0 7.0 0.00 0.00 0.00 30 1011.8
20260902223122 102 129 2.0 6.0 0.00 0.00 0.00 32 1011.9
20260902222558 102 180 2.0 11.0 0.00 0.00 0.00 33 1012.0
20260902222059 102 276 3.0 11.0 0.00 0.00 0.00 33 1012.2
20260902221608 101 218 5.0 11.0 0.00 0.00 0.00 33 1012.3
20260902221059 101 203 4.0 11.0 0.00 0.00 0.00 34 1012.3
20260902220600 101 215 5.0 10.0 0.00 0.00 0.00 34 1012.4
20260902220111 101 251 4.0 10.0 0.00 0.00 0.00 34 1012.5
20260902215558 102 231 5.0 10.0 0.00 0.00 0.00 33 1012.5
20260902215059 102 199 2.0 7.0 0.00 0.00 0.00 33 1012.6
20260902214601 102 262 3.0 8.0 0.00 0.00 0.00 33 1012.7
20260902214059 102 146 4.0 10.0 0.00 0.00 0.00 33 1012.7
20260902213558 101 285 4.0 11.0 0.00 0.00 0.00 33 1012.8
20260902213107 101 248 5.0 11.0 0.00 0.00 0.00 33 1012.8
20260902212559 101 189 4.0 8.0 0.00 0.00 0.00 34 1012.8
20260902212059 100 155 3.0 12.0 0.00 0.00 0.00 33 1012.8
20260902211603 100 144 4.0 12.0 0.00 0.00 0.00 34 1012.9
20260902211100 100 160 5.0 13.0 0.00 0.00 0.00 33 1013.0
20260902210558 100 160 4.0 13.0 0.00 0.00 0.00 33 1013.2
20260902210103 100 153 6.0 12.0 0.00 0.00 0.00 33 1013.2
20260902205559 99 193 7.0 14.0 0.00 0.00 0.00 34 1013.3
20260902205059 99 116 7.0 14.0 0.00 0.00 0.00 34 1013.3
20260902204640 98 151 3.0 10.0 0.00 0.00 0.00 36 1013.3
20260902204058 98 103 5.0 10.0 0.00 0.00 0.00 35 1013.5
20260902203558 98 134 5.0 9.0 0.00 0.00 0.00 35 1013.6
20260902203106 98 207 4.0 11.0 0.00 0.00 0.00 36 1013.7
20260902202602 98 184 5.0 11.0 0.00 0.00 0.00 35 1013.8
20260902202059 98 175 6.0 11.0 0.00 0.00 0.00 36 1013.8
20260902201603 99 123 5.0 13.0 0.00 0.00 0.00 35 1013.9
20260902201102 99 224 4.0 13.0 0.00 0.00 0.00 36 1013.9
20260902200558 99 120 3.0 11.0 0.00 0.00 0.00 36 1014.1
20260902200105 99 129 2.0 10.0 0.00 0.00 0.00 36 1014.2
20260902195559 98 193 4.0 11.0 0.00 0.00 0.00 36 1014.2
20260902195059 98 156 4.0 11.0 0.00 0.00 0.00 37 1014.3
20260902194603 97 117 4.0 12.0 0.00 0.00 0.00 36 1014.3
20260902194058 97 113 6.0 12.0 0.00 0.00 0.00 36 1014.5
20260902193559 97 137 5.0 12.0 0.00 0.00 0.00 37 1014.5
20260902193105 97 171 5.0 12.0 0.00 0.00 0.00 38 1014.6
20260902192601 97 101 6.0 12.0 0.00 0.00 0.00 37 1014.7
20260902192058 98 187 4.0 12.0 0.00 0.00 0.00 37 1014.7
20260902191604 98 143 6.0 12.0 0.00 0.00 0.00 37 1014.9
20260902191058 97 139 4.0 10.0 0.00 0.00 0.00 38 1014.9
20260902190558 98 92 5.0 9.0 0.00 0.00 0.00 36 1015.1
20260902185559 97 165 4.0 11.0 0.00 0.00 0.00 37 1015.2
20260902185059 97 153 3.0 10.0 0.00 0.00 0.00 37 1015.2
20260902184656 97 162 5.0 10.0 0.00 0.00 0.00 37 1015.3
20260902184058 97 121 5.0 11.0 0.00 0.00 0.00 37 1015.3
20260902183559 96 129 5.0 11.0 0.00 0.00 0.00 38 1015.4
20260902183113 96 153 6.0 10.0 0.00 0.00 0.00 38 1015.4
20260902182558 97 182 3.0 11.0 0.00 0.00 0.00 38 1015.5
20260902182059 96 154 5.0 11.0 0.00 0.00 0.00 37 1015.6
20260902181613 96 203 7.0 11.0 0.00 0.00 0.00 37 1015.7
20260902181059 95 137 5.0 12.0 0.00 0.00 0.00 38 1015.8
20260902180558 95 193 7.0 12.0 0.00 0.00 0.00 38 1015.8
20260902180104 94 229 4.0 10.0 0.00 0.00 0.00 39 1015.8
20260902175559 94 141 6.0 12.0 0.00 0.00 0.00 39 1015.8
20260902175059 93 132 5.0 12.0 0.00 0.00 0.00 38 1015.9
20260902174608 93 150 7.0 12.0 0.00 0.00 0.00 38 1015.9
20260902174059 94 150 8.0 12.0 0.00 0.00 0.00 37 1015.9
20260902173559 95 158 6.0 12.0 0.00 0.00 0.00 39 1015.9
20260902173119 95 200 5.0 12.0 0.00 0.00 0.00 38 1015.8
20260902172558 94 129 6.0 12.0 0.00 0.00 0.00 39 1015.9